N0LTM Weather Reports


time (UTC)temp
C
wind
direction
speed
KPH
gust
KPH
rain 1hr
cm
rain 24hr
cm
rain mn
cm
humidity
%
barometer
mb
20260906113552 19 0 0.0 4.8 0.00 0.00 0.00 98 1019.2
20260906113100 19 0 0.0 8.0 0.00 0.00 0.00 98 1019.2
20260906112552 19 352 0.0 8.0 0.00 0.00 0.00 98 1019.2
20260906112052 19 10 1.6 8.0 0.00 0.00 0.00 98 1019.2
20260906111607 19 5 0.0 8.0 0.00 0.00 0.00 98 1019.0
20260906111056 19 32 0.0 6.4 0.00 0.00 0.00 98 1019.1
20260906110556 19 22 1.6 6.4 0.00 0.00 0.00 98 1019.0
20260906105552 19 338 0.0 6.4 0.00 0.00 0.00 98 1018.9
20260906105056 19 0 0.0 6.4 0.00 0.00 0.00 98 1019.0
20260906104600 19 0 0.0 6.4 0.00 0.00 0.00 98 1019.0
20260906104053 19 355 0.0 6.4 0.00 0.00 0.00 98 1019.0
20260906103552 19 13 0.0 4.8 0.00 0.00 0.00 98 1018.9
20260906103103 19 0 0.0 6.4 0.00 0.00 0.00 98 1018.8
20260906102553 19 0 1.6 6.4 0.00 0.00 0.00 98 1018.9
20260906102052 19 337 0.0 6.4 0.00 0.00 0.00 98 1018.7
20260906101600 19 0 0.0 6.4 0.00 0.00 0.00 98 1018.6
20260906101052 19 0 0.0 4.8 0.00 0.00 0.00 98 1018.6
20260906100556 19 0 0.0 4.8 0.00 0.00 0.00 98 1018.6
20260906100103 19 323 0.0 6.4 0.00 0.00 0.00 98 1018.6
20260906095553 19 323 0.0 6.4 0.00 0.00 0.00 98 1018.6
20260906095053 18 321 0.0 6.4 0.00 0.00 0.00 98 1018.7
20260906094602 18 323 0.0 6.4 0.00 0.00 0.00 98 1018.6
20260906094054 18 330 0.0 4.8 0.00 0.00 0.00 97 1018.6
20260906093554 18 0 0.0 4.8 0.00 0.00 0.00 97 1018.6
20260906093105 18 0 0.0 0.0 0.00 0.00 0.00 97 1018.6
20260906092556 18 0 0.0 0.0 0.00 0.00 0.00 97 1018.4
20260906092054 18 0 0.0 0.0 0.00 0.00 0.00 97 1018.4
20260906091601 18 0 0.0 0.0 0.00 0.00 0.00 97 1018.4
20260906091053 18 0 0.0 0.0 0.00 0.00 0.00 97 1018.5
20260906090553 18 0 0.0 1.6 0.00 0.00 0.00 97 1018.5
20260906085554 18 0 0.0 3.2 0.00 0.00 0.00 96 1018.5
20260906085052 18 0 0.0 3.2 0.00 0.00 0.00 96 1018.5
20260906084601 18 0 0.0 1.6 0.00 0.00 0.00 96 1018.4
20260906084053 18 0 0.0 1.6 0.00 0.00 0.00 95 1018.4
20260906083555 18 0 0.0 3.2 0.00 0.00 0.00 96 1018.4
20260906083103 18 0 0.0 3.2 0.00 0.00 0.00 95 1018.5
20260906082552 18 0 0.0 3.2 0.00 0.00 0.00 95 1018.5
20260906082056 18 0 0.0 3.2 0.00 0.00 0.00 95 1018.5
20260906081602 18 0 0.0 3.2 0.00 0.00 0.00 95 1018.6
20260906081052 18 0 0.0 0.0 0.00 0.00 0.00 95 1018.6
20260906080555 18 0 0.0 0.0 0.00 0.00 0.00 94 1018.5
20260906080103 18 0 0.0 0.0 0.00 0.00 0.00 94 1018.5
20260906075557 18 0 0.0 0.0 0.00 0.00 0.00 94 1018.5
20260906075055 18 0 0.0 0.0 0.00 0.00 0.00 94 1018.4
20260906074602 18 0 0.0 0.0 0.00 0.00 0.00 94 1018.4
20260906074054 18 0 0.0 1.6 0.00 0.00 0.00 94 1018.5
20260906073555 18 0 0.0 1.6 0.00 0.00 0.00 94 1018.5
20260906073103 19 0 0.0 1.6 0.00 0.00 0.00 94 1018.5
20260906072618 19 0 0.0 1.6 0.00 0.00 0.00 94 1018.4
20260906072057 19 0 0.0 1.6 0.00 0.00 0.00 94 1018.5
20260906071603 19 0 0.0 1.6 0.00 0.00 0.00 94 1018.4
20260906071055 19 0 0.0 1.6 0.00 0.00 0.00 93 1018.4
20260906070556 20 0 0.0 1.6 0.00 0.00 0.00 93 1018.4
20260906070059 20 0 0.0 1.6 0.00 0.00 0.00 93 1018.4
20260906065555 20 0 0.0 3.2 0.00 0.00 0.00 93 1018.4
20260906065055 20 0 0.0 4.8 0.00 0.00 0.00 93 1018.5
20260906064600 20 329 0.0 6.4 0.00 0.00 0.00 93 1018.5
20260906064056 20 329 0.0 6.4 0.00 0.00 0.00 93 1018.6
20260906063555 20 340 0.0 4.8 0.00 0.00 0.00 93 1018.7
20260906063102 20 351 0.0 4.8 0.00 0.00 0.00 93 1018.6
20260906062555 20 0 0.0 6.4 0.00 0.00 0.00 93 1018.6
20260906062055 20 0 1.6 6.4 0.00 0.00 0.00 93 1018.7
20260906061604 20 5 0.0 6.4 0.00 0.00 0.00 92 1018.7
20260906061055 20 324 1.6 8.0 0.00 0.00 0.00 93 1018.6
20260906060555 20 330 0.0 8.0 0.00 0.00 0.00 93 1018.7
20260906060100 20 331 0.0 6.4 0.00 0.00 0.00 93 1018.6
20260906055555 20 0 0.0 6.4 0.00 0.00 0.00 93 1018.7
20260906055056 20 319 1.6 6.4 0.00 0.00 0.00 93 1018.7
20260906054637 20 25 1.6 6.4 0.00 0.00 0.00 93 1018.7
20260906054055 20 0 0.0 12.9 0.00 0.00 0.00 93 1018.7
20260906053553 20 0 0.0 12.9 0.00 0.00 0.00 93 1018.7
20260906053059 20 351 1.6 8.0 0.00 0.00 0.00 93 1018.7
20260906052555 20 326 1.6 9.7 0.00 0.00 0.00 93 1018.6
20260906052055 20 0 1.6 11.3 0.00 0.00 0.00 92 1018.5
20260906051603 20 342 0.0 11.3 0.00 0.00 0.00 92 1018.5
20260906051055 20 47 1.6 6.4 0.00 0.00 0.00 92 1018.5
20260906050556 20 48 1.6 8.0 0.00 0.00 0.00 92 1018.5
20260906050108 20 18 1.6 8.0 0.00 0.00 0.00 92 1018.6
20260906045553 20 328 0.0 11.3 0.00 0.00 0.00 92 1018.5
20260906045052 20 0 1.6 11.3 0.00 0.00 0.00 91 1018.4
20260906044601 20 9 0.0 6.4 0.00 0.00 0.00 91 1018.4
20260906044055 20 0 1.6 6.4 0.00 0.00 0.00 91 1018.4
20260906043556 20 349 0.0 6.4 0.00 0.00 0.00 91 1018.4
20260906043106 20 333 1.6 6.4 0.00 0.00 0.00 91 1018.2
20260906042552 20 350 0.0 6.4 0.00 0.00 0.00 91 1018.2
20260906042053 20 347 1.6 6.4 0.00 0.00 0.00 91 1018.3
20260906041603 20 0 1.6 6.4 0.00 0.00 0.00 91 1018.2
20260906041053 20 0 0.0 4.8 0.00 0.00 0.00 91 1018.1
20260906040552 20 36 0.0 8.0 0.00 0.00 0.00 91 1018.1
20260906040116 20 36 0.0 8.0 0.00 0.00 0.00 90 1017.9
20260906035555 20 0 0.0 8.0 0.00 0.00 0.00 90 1017.9
20260906035053 20 0 0.0 8.0 0.00 0.00 0.00 90 1017.9
20260906034600 20 347 1.6 11.3 0.00 0.00 0.00 90 1017.8
20260906034052 20 0 1.6 11.3 0.00 0.00 0.00 90 1017.7
20260906033553 21 11 1.6 11.3 0.00 0.00 0.00 89 1017.6
20260906033131 21 346 1.6 11.3 0.00 0.00 0.00 89 1017.5
20260906032552 21 9 1.6 14.5 0.00 0.00 0.00 89 1017.4
20260906032056 21 355 3.2 14.5 0.00 0.00 0.00 89 1017.4
20260906031615 21 11 1.6 8.0 0.00 0.00 0.00 89 1017.4
20260906031053 21 0 1.6 11.3 0.00 0.00 0.00 88 1017.4
20260906030556 21 51 1.6 11.3 0.00 0.00 0.00 88 1017.4
20260906025555 21 0 1.6 8.0 0.00 0.08 0.00 87 1017.4
20260906025052 21 0 1.6 8.0 0.00 0.08 0.00 86 1017.4
20260906024606 21 35 0.0 8.0 0.00 0.08 0.00 86 1017.5
20260906024056 21 0 0.0 6.4 0.00 0.08 0.00 86 1017.4
20260906023553 21 0 0.0 14.5 0.00 0.08 0.00 86 1017.3
20260906023104 21 344 1.6 14.5 0.00 0.08 0.00 86 1017.2
20260906022552 21 355 3.2 14.5 0.00 0.08 0.00 86 1017.2
20260906022055 21 5 3.2 14.5 0.00 0.08 0.00 86 1017.3
20260906021612 21 78 3.2 11.3 0.00 0.08 0.00 86 1017.3
20260906021052 21 101 1.6 12.9 0.00 0.08 0.00 86 1017.4
20260906020552 21 0 0.0 16.1 0.00 0.08 0.00 86 1017.3
20260906020058 21 0 1.6 16.1 0.00 0.08 0.00 86 1017.3
20260906015552 21 22 3.2 16.1 0.00 0.08 0.00 86 1017.2
20260906015056 21 43 1.6 9.7 0.00 0.08 0.00 86 1017.2
20260906014603 21 336 1.6 9.7 0.00 0.08 0.00 86 1017.3
20260906014055 21 57 1.6 16.1 0.00 0.08 0.00 86 1017.3
20260906013557 22 5 3.2 16.1 0.00 0.08 0.00 85 1017.4
20260906013107 22 52 3.2 12.9 0.00 0.08 0.00 85 1017.4
20260906012552 22 29 1.6 9.7 0.00 0.08 0.00 85 1017.4
20260906012053 22 11 1.6 11.3 0.00 0.08 0.00 85 1017.3
20260906011605 22 0 1.6 12.9 0.00 0.08 0.00 85 1017.3
20260906011056 22 41 3.2 17.7 0.00 0.08 0.00 84 1017.3
20260906010556 22 44 3.2 17.7 0.00 0.08 0.00 84 1017.3
20260906010106 22 9 1.6 12.9 0.00 0.08 0.00 84 1017.2
20260906005557 22 10 3.2 12.9 0.00 0.08 0.00 84 1017.1
20260906005056 22 303 3.2 16.1 0.00 0.08 0.00 84 1017.1
20260906004605 22 24 3.2 16.1 0.00 0.08 0.00 83 1017.2
20260906004052 22 340 3.2 14.5 0.00 0.08 0.00 83 1017.1
20260906003552 22 0 3.2 14.5 0.00 0.08 0.00 83 1017.2
20260906003105 22 36 3.2 14.5 0.00 0.08 0.00 82 1017.1
20260906002552 22 39 3.2 14.5 0.00 0.08 0.00 82 1017.2
20260906002056 22 17 4.8 14.5 0.00 0.08 0.00 82 1017.1
20260906001604 22 302 3.2 16.1 0.00 0.08 0.00 82 1017.1
20260906001052 22 17 3.2 19.3 0.00 0.08 0.00 81 1017.1
20260906000556 23 68 3.2 22.5 0.00 0.08 0.00 81 1016.9
20260906000106 23 318 4.8 22.5 0.00 0.08 0.00 80 1016.8
20260905235553 23 22 3.2 17.7 0.00 0.08 0.00 79 1016.6
20260905235053 23 86 3.2 17.7 0.00 0.08 0.00 78 1016.6
20260905234608 23 39 3.2 16.1 0.00 0.08 0.00 77 1016.6
20260905234054 24 46 3.2 16.1 0.00 0.08 0.00 77 1016.5
20260905233556 24 44 6.4 16.1 0.00 0.08 0.00 76 1016.4
20260905233103 24 29 1.6 16.1 0.00 0.08 0.00 76 1016.5
20260905232552 25 56 4.8 20.9 0.00 0.08 0.00 75 1016.4
20260905232055 25 32 6.4 20.9 0.00 0.08 0.00 74 1016.4
20260905231604 25 12 6.4 19.3 0.00 0.08 0.00 74 1016.4
20260905231055 25 49 1.6 16.1 0.00 0.08 0.00 75 1016.3
20260905230557 25 10 3.2 17.7 0.00 0.08 0.00 74 1016.4
20260905230100 25 52 1.6 20.9 0.00 0.08 0.00 74 1016.2
20260905225555 26 0 1.6 20.9 0.00 0.08 0.00 73 1016.1
20260905225056 26 355 3.2 22.5 0.00 0.08 0.00 73 1016.0
20260905224613 26 32 4.8 22.5 0.00 0.08 0.00 72 1015.9
20260905224056 26 13 4.8 22.5 0.00 0.08 0.00 71 1016.0
20260905223555 26 162 3.2 16.1 0.00 0.08 0.00 71 1015.9
20260905223101 27 15 1.6 16.1 0.00 0.08 0.00 71 1016.0
20260905222557 27 5 4.8 14.5 0.00 0.08 0.00 70 1015.9
20260905222052 27 355 4.8 14.5 0.00 0.08 0.00 70 1015.9
20260905221604 27 328 3.2 16.1 0.00 0.08 0.00 69 1015.9
20260905221053 27 342 3.2 17.7 0.00 0.08 0.00 67 1015.8
20260905220553 27 331 3.2 17.7 0.00 0.08 0.00 66 1015.8
20260905220105 27 336 6.4 17.7 0.00 0.08 0.00 66 1015.7
20260905215553 27 322 3.2 12.9 0.00 0.08 0.00 67 1015.8
20260905215052 27 0 3.2 11.3 0.00 0.08 0.00 67 1015.9
20260905214604 27 32 1.6 14.5 0.00 0.08 0.00 67 1015.8
20260905214054 27 340 3.2 14.5 0.00 0.08 0.00 66 1015.9
20260905213555 27 338 3.2 9.7 0.00 0.08 0.00 65 1015.8
20260905213103 28 344 3.2 9.7 0.00 0.08 0.00 63 1015.7
20260905212556 28 44 0.0 9.7 0.00 0.08 0.00 63 1015.8
20260905212055 28 326 3.2 11.3 0.00 0.08 0.00 63 1015.8
20260905211611 28 0 4.8 12.9 0.00 0.08 0.00 62 1015.8
20260905211056 28 328 3.2 12.9 0.00 0.08 0.00 63 1015.7
20260905210552 28 81 1.6 6.4 0.00 0.08 0.00 65 1015.8
20260905210105 28 0 1.6 16.1 0.00 0.08 0.00 64 1015.8
20260905205552 28 0 4.8 16.1 0.00 0.08 0.00 64 1015.8
20260905205055 28 347 1.6 14.5 0.00 0.08 0.00 65 1015.7
20260905204608 28 350 4.8 14.5 0.00 0.08 0.00 64 1015.9
20260905204059 28 344 4.8 14.5 0.00 0.08 0.00 67 1015.8
20260905203556 28 71 1.6 8.0 0.00 0.08 0.00 71 1015.9
20260905203119 27 59 1.6 8.0 0.00 0.08 0.00 69 1016.0
20260905202556 27 355 3.2 8.0 0.00 0.08 0.00 69 1016.1
20260905202056 27 15 1.6 8.0 0.00 0.08 0.00 69 1016.0
20260905201610 27 51 1.6 9.7 0.00 0.08 0.00 71 1016.0
20260905201055 27 60 0.0 9.7 0.00 0.08 0.00 73 1016.0
20260905200552 26 9 1.6 9.7 0.00 0.08 0.00 74 1015.9
20260905200118 26 49 1.6 9.7 0.00 0.08 0.00 76 1016.1
20260905195556 26 333 1.6 12.9 0.00 0.08 0.00 77 1016.1
20260905195053 26 344 1.6 12.9 0.00 0.08 0.00 77 1016.0
20260905194608 26 336 1.6 8.0 0.00 0.08 0.00 77 1016.2
20260905194056 26 59 1.6 6.4 0.00 0.08 0.00 79 1016.3
20260905193552 25 0 0.0 9.7 0.00 0.08 0.00 79 1016.3
20260905193101 25 0 1.6 9.7 0.00 0.08 0.00 77 1016.4
20260905192553 26 355 4.8 9.7 0.00 0.08 0.00 77 1016.4
20260905192055 26 333 3.2 11.3 0.00 0.08 0.00 77 1016.4
20260905191602 26 355 3.2 12.9 0.00 0.08 0.00 77 1016.4
20260905191054 25 332 1.6 12.9 0.00 0.08 0.00 79 1016.4
20260905190552 25 322 4.8 12.9 0.00 0.08 0.00 80 1016.4
20260905190101 25 0 1.6 12.9 0.00 0.08 0.00 81 1016.4
20260905185556 25 0 1.6 12.9 0.00 0.08 0.00 82 1016.5
20260905185056 25 327 3.2 9.7 0.00 0.08 0.00 82 1016.6
20260905184559 25 59 3.2 8.0 0.00 0.08 0.00 82 1016.6
20260905184056 25 319 1.6 12.9 0.00 0.08 0.00 83 1016.7
20260905183556 25 334 3.2 12.9 0.00 0.08 0.00 83 1016.7
20260905183102 25 9 3.2 12.9 0.00 0.08 0.00 83 1016.6
20260905182552 25 360 1.6 6.4 0.00 0.08 0.00 83 1016.7
20260905182053 25 351 0.0 12.9 0.00 0.08 0.00 83 1016.7
20260905181606 25 0 1.6 12.9 0.00 0.08 0.00 83 1016.8
20260905181052 25 336 3.2 12.9 0.00 0.08 0.00 83 1016.8
20260905180553 25 323 1.6 9.7 0.00 0.08 0.00 83 1016.8
20260905180105 25 11 1.6 8.0 0.00 0.08 0.00 83 1016.6
20260905175559 25 0 1.6 8.0 0.00 0.08 0.00 82 1016.6
20260905175056 25 160 1.6 12.9 0.00 0.08 0.00 82 1016.6
20260905174607 25 0 1.6 12.9 0.00 0.08 0.00 82 1016.6
20260905174059 25 46 1.6 12.9 0.00 0.08 0.00 82 1016.6
20260905173556 25 346 3.2 12.9 0.00 0.08 0.00 81 1016.6
20260905173106 25 355 3.2 16.1 0.00 0.08 0.00 80 1016.5
20260905172556 25 17 3.2 16.1 0.00 0.08 0.00 80 1016.6
20260905172056 25 19 3.2 16.1 0.00 0.08 0.00 80 1016.5
20260905171601 25 350 1.6 14.5 0.00 0.08 0.00 80 1016.6
20260905171055 25 333 3.2 14.5 0.00 0.08 0.00 79 1016.5
20260905170552 26 302 3.2 9.7 0.00 0.08 0.00 79 1016.6
20260905170112 26 59 1.6 12.9 0.00 0.08 0.00 79 1016.6
20260905165556 26 17 1.6 12.9 0.00 0.08 0.00 79 1016.6
20260905165057 26 323 3.2 12.9 0.00 0.08 0.00 79 1016.5
20260905164605 26 352 3.2 11.3 0.00 0.08 0.00 78 1016.6
20260905164055 26 348 1.6 9.7 0.00 0.08 0.00 78 1016.6
20260905163555 26 84 1.6 14.5 0.00 0.08 0.00 78 1016.6
20260905163100 26 5 3.2 14.5 0.00 0.08 0.00 78 1016.6
20260905162556 26 341 1.6 14.5 0.00 0.08 0.00 78 1016.6
20260905162057 26 344 1.6 14.5 0.00 0.08 0.00 78 1016.6
20260905161600 26 15 3.2 9.7 0.00 0.08 0.00 79 1016.4
20260905161056 26 27 3.2 8.0 0.00 0.08 0.00 81 1016.4
20260905160556 26 30 1.6 8.0 0.00 0.08 0.00 79 1016.5
20260905160107 26 24 3.2 9.7 0.00 0.08 0.00 80 1016.5
20260905155621 26 9 3.2 11.3 0.00 0.08 0.00 82 1016.5
20260905155055 26 325 3.2 11.3 0.00 0.08 0.00 84 1016.5
20260905154613 26 26 3.2 11.3 0.00 0.08 0.00 86 1016.6
20260905154053 25 100 3.2 11.3 0.00 0.08 0.00 90 1016.4
20260905153553 25 165 3.2 9.7 0.00 0.08 0.00 91 1016.3
20260905153058 25 0 1.6 6.4 0.00 0.08 0.00 93 1016.3
20260905152556 24 306 0.0 12.9 0.00 0.08 0.00 94 1016.2
20260905152056 24 0 1.6 12.9 0.00 0.08 0.00 94 1016.2
20260905151606 24 360 1.6 12.9 0.00 0.08 0.00 95 1016.2
20260905151055 23 351 1.6 12.9 0.00 0.08 0.00 95 1016.2
20260905150558 23 327 3.2 12.9 0.00 0.08 0.00 96 1016.1
20260905150105 23 355 3.2 9.7 0.00 0.08 0.00 96 1016.1
20260905145556 23 320 1.6 16.1 0.00 0.08 0.00 97 1016.1
20260905145056 23 0 3.2 16.1 0.00 0.08 0.00 97 1016.1
20260905144601 23 360 1.6 12.9 0.00 0.08 0.00 98 1016.0
20260905144055 23 360 1.6 12.9 0.00 0.08 0.00 98 1016.0
20260905143558 23 333 3.2 9.7 0.00 0.08 0.00 98 1016.1
20260905143101 23 331 1.6 8.0 0.00 0.08 0.00 98 1016.0
20260905142556 23 298 3.2 8.0 0.00 0.08 0.00 98 1015.9
20260905142056 23 306 3.2 8.0 0.00 0.08 0.00 98 1015.9
20260905141602 23 325 0.0 6.4 0.00 0.08 0.00 99 1016.0
20260905141056 23 345 0.0 8.0 0.00 0.08 0.00 99 1016.1
20260905140556 22 355 1.6 8.0 0.00 0.08 0.00 99 1016.0
20260905140105 22 298 1.6 8.0 0.00 0.08 0.00 99 1016.0
20260905135556 22 0 1.6 8.0 0.00 0.08 0.00 99 1016.0
20260905135056 22 0 1.6 8.0 0.00 0.08 0.00 99 1015.8
20260905134605 22 319 3.2 8.0 0.00 0.08 0.00 99 1015.8
20260905134056 22 18 0.0 9.7 0.00 0.08 0.00 99 1015.7
20260905133556 22 11 0.0 9.7 0.00 0.08 0.00 99 1015.8
20260905133100 22 19 1.6 14.5 0.00 0.08 0.00 99 1015.8
20260905132556 22 0 3.2 14.5 0.00 0.08 0.00 99 1015.9
20260905132056 22 18 0.0 8.0 0.00 0.08 0.00 99 1015.8
20260905131608 22 292 0.0 12.9 0.00 0.08 0.00 99 1016.0
20260905131056 22 296 1.6 12.9 0.00 0.08 0.00 99 1016.1
20260905130556 22 299 1.6 12.9 0.00 0.08 0.00 99 1016.2
20260905130106 22 0 0.0 9.7 0.00 0.08 0.00 99 1016.1
20260905125555 22 0 1.6 12.9 0.00 0.08 0.00 99 1015.8
20260905125056 22 0 0.0 12.9 0.00 0.08 0.00 99 1015.5
20260905124601 22 338 1.6 12.9 0.00 0.08 0.00 99 1015.4
20260905124051 22 284 0.0 8.0 0.00 0.08 0.00 99 1015.3
20260905123552 22 0 0.0 9.7 0.00 0.08 0.00 99 1015.3
20260905123109 22 0 0.0 11.3 0.00 0.08 0.00 99 1015.1
20260905122552 22 0 1.6 12.9 0.00 0.08 0.00 99 1014.9
20260905122051 22 9 1.6 12.9 0.00 0.08 0.00 99 1015.0
20260905121602 22 0 0.0 12.9 0.00 0.08 0.00 99 1014.8
20260905121055 22 0 0.0 6.4 0.00 0.08 0.00 99 1014.8
20260905120552 22 0 0.0 0.0 0.00 0.08 0.00 99 1014.7
20260905120111 22 0 0.0 0.0 0.00 0.08 0.00 99 1014.7
20260905115552 22 0 0.0 0.0 0.00 0.08 0.00 99 1014.5
20260905115052 22 0 0.0 0.0 0.00 0.08 0.00 99 1014.5
20260905114612 22 0 0.0 0.0 0.00 0.08 0.00 99 1014.4
20260905114052 22 0 0.0 0.0 0.00 0.08 0.00 99 1014.4